Location: Unspecified
(50.7693°N, 0.0000°E)
Time: 03:01:17
(UTC+00:00)

Vanguard 1 Rocket - Pass Details

Date: 26 June 2019
Orbit: 651 x 4225 km, 34.3° (Epoch: 18 July)

Event Time Altitude Azimuth Distance (km) Brightness Sun altitude
Rises 12:39:05 0° 183° (S) 8,454 12.7 61.7°
Reaches altitude 10° 12:50:19 10° 163° (SSE) 7,151 12.4 61.1°
Maximum altitude 12:59:21 14° 140° (SE) 6,323 12.0 60.5°
Drops below altitude 10° 13:07:03 10° 116° (ESE) 6,023 11.7 59.9°
Sets 13:14:24 0° 94° (E) 6,284 11.5 59.3°
